TimeEDT,TemperatureF,Dew PointF,Humidity,Sea Level PressureIn,VisibilityMPH,Wind Direction,Wind SpeedMPH,Gust SpeedMPH,PrecipitationIn,Events,Conditions,WindDirDegrees,DateUTC
12:52 AM,28.9,12.9,51,30.14,10.0,West,8.1,-,N/A,,Scattered Clouds,260,2013-04-04 04:52:00
1:52 AM,28.0,12.0,51,30.16,10.0,SW,4.6,-,N/A,,Clear,230,2013-04-04 05:52:00
2:52 AM,26.1,12.0,55,30.16,10.0,SSW,4.6,-,N/A,,Clear,210,2013-04-04 06:52:00
3:52 AM,25.0,10.9,55,30.17,10.0,SSW,5.8,-,N/A,,Clear,200,2013-04-04 07:52:00
4:52 AM,27.0,8.1,45,30.17,10.0,West,6.9,-,N/A,,Clear,260,2013-04-04 08:52:00
5:52 AM,26.1,8.1,47,30.19,10.0,West,4.6,-,N/A,,Clear,280,2013-04-04 09:52:00
6:52 AM,24.1,10.0,55,30.22,10.0,South,4.6,-,N/A,,Clear,190,2013-04-04 10:52:00
7:52 AM,28.0,10.0,47,30.23,10.0,SSW,4.6,-,N/A,,Clear,200,2013-04-04 11:52:00
8:52 AM,32.0,9.0,38,30.24,10.0,Variable,5.8,-,N/A,,Clear,0,2013-04-04 12:52:00
9:52 AM,34.0,8.1,34,30.22,10.0,WNW,9.2,-,N/A,,Clear,300,2013-04-04 13:52:00
10:52 AM,37.0,8.1,30,30.19,10.0,WNW,10.4,-,N/A,,Clear,290,2013-04-04 14:52:00
11:52 AM,39.0,6.1,26,30.16,10.0,SW,9.2,-,N/A,,Clear,220,2013-04-04 15:52:00
12:52 PM,42.1,7.0,24,30.12,10.0,SW,5.8,-,N/A,,Clear,230,2013-04-04 16:52:00
1:52 PM,46.0,6.1,20,30.09,10.0,WSW,11.5,18.4,N/A,,Clear,240,2013-04-04 17:52:00
2:52 PM,48.0,6.1,18,30.07,10.0,WSW,13.8,21.9,N/A,,Clear,240,2013-04-04 18:52:00
3:52 PM,48.9,9.0,20,30.03,10.0,SSW,11.5,18.4,N/A,,Clear,210,2013-04-04 19:52:00
4:52 PM,48.9,9.0,20,30.00,10.0,WSW,12.7,18.4,N/A,,Clear,240,2013-04-04 20:52:00
5:52 PM,48.0,10.0,22,29.99,10.0,SW,8.1,18.4,N/A,,Clear,230,2013-04-04 21:52:00
6:52 PM,46.9,10.9,23,29.99,10.0,WSW,6.9,-,N/A,,Clear,240,2013-04-04 22:52:00
7:52 PM,44.1,12.9,28,29.99,10.0,Calm,Calm,-,N/A,,Clear,0,2013-04-04 23:52:00
8:52 PM,37.0,16.0,42,30.00,10.0,SSW,3.5,-,N/A,,Clear,200,2013-04-05 00:52:00
9:52 PM,34.0,17.1,50,29.99,10.0,SSW,4.6,-,N/A,,Clear,210,2013-04-05 01:52:00
10:52 PM,37.0,16.0,42,29.97,10.0,Calm,Calm,-,N/A,,Clear,0,2013-04-05 02:52:00
11:52 PM,28.9,19.9,69,29.94,10.0,Calm,Calm,-,N/A,,Clear,0,2013-04-05 03:52:00